Location: Unnamed
(48.6007°N, 2.4808°E)
Time: 12:04:23
(UTC+02:00)

SEEDS - Pass Details

Date: 10 April 2023
Orbit: 568 x 587 km, 97.7° (Epoch: 09 June)

Event Time Altitude Azimuth Distance (km) Brightness Sun altitude
Rises 05:34:53 0° 17° (NNE) 2,840 ? -15.4°
Reaches altitude 10° 05:37:07 10° 22° (NNE) 1,933 ? -15.1°
Maximum altitude 05:41:13 52° 100° (E) 738 ? -14.5°
Drops below altitude 10° 05:45:16 10° 177° (S) 1,910 ? -13.9°
Enters shadow 05:46:50 - 181° (S) 2,543 ? -13.7°
